COSMOS 1275 DEB, 13024

Orbit data source: Space-Track

COSMOS 1275 DEB, 13024 is space debris in LEO originally from a launch on Thu, 04 Jun 1981 UTC launched from the Plesetsk Missile And Space Complex (PKMTR). Debris objects in space refer to the collection of defunct objects orbiting the Earth. Examples of debris include non-operational satellites, rocket bodies, and fragments generated from explosions, collisions, or faulty payload assembly.

Loading next visibility...
Identifier
13024, 1981-053EW
Orbit
LEO
Country
Flag of CISCIS
Related business
Manufacturer
Unknown
Mission
Spacecraft
Bus & Motor
Unknown
Mass
Unknown
Launch date (UTC)
1981-06-04 (45 years ago)
Launch vehicle
Unknown
Launch site
Plesetsk Missile And Space Complex (PKMTR)
Object type
Payload
Rocket body
Debris
Shape & HBR
Unknown shape, 0.1 m
Radar Cross Section
Small (<0.1 m²)

Expand to show TLE details & history
Last TLE update: 11 hours ago

TLE from 11 hours ago
0 COSMOS 1275 DEB
1 13024U 81053EW  26119.54833294  .00001936  00000-0  11382-2 0  9990
2 13024  82.9196 295.9305 0040195 215.3942 210.7822 14.07207699253495
Epoch: 2026-04-29T13:09Z
TLE epoch observation values (Epoch: 2026-04-29T13:09:35.966Z)
Latitude
65.06734°
Longitude
-103.56333°
Altitude
905.243 km
Speed
7.393 km/s
True Right ascension
20h 45m 22s
True Declination
64° 56' 18"
Sunlit
Object was in daylight at epoch
Visualization orbit readout
Latitude
Unknown
Longitude
Unknown
Altitude
Unknown
Speed
Unknown
Apparent Right ascension
Unknown
Apparent Declination
Unknown
Sunlit
N/A
Visualization observer readout
Local Sidereal Time
07:47:52
Azimuth
Unknown
Elevation
Unknown
Doppler factor
Unknown
Orbital elements
Apogee altitude
895.166 km
Perigee altitude
836.93 km
Semi-major axis
7,244.185 km
Eccentricity
0.00402
Inclination
82.9196°
RAAN
295.9305°
Arg. of periapsis
215.3942°
True anomaly
210.54749°
Mean anomaly
210.7822°
Eccentric anomaly
210.66474°
Mean motion
3.52013 °/min
Orbital period
102.27 mins
BSTAR
0.0011382
Loading maneuver chart data...
Computing Atmospheric mass density...
Loading historical data...
Loading historical data...
Loading historical data...
Loading historical data...
Loading historical data...
Loading historical data...
Loading historical data...

Documentation

Showing up to 5 results
|